Year,Month,Day,Hour,Minute,Value (Times are PST for temperature in C)
2019,04,01,00,00,7.70
2019,04,01,00,01,7.70
2019,04,01,00,02,7.70
2019,04,01,00,03,7.60
2019,04,01,00,04,7.60
2019,04,01,00,05,7.60
2019,04,01,00,06,7.60
2019,04,01,00,07,7.60
2019,04,01,00,08,7.60
2019,04,01,00,09,7.50
2019,04,01,00,10,7.50
2019,04,01,00,11,7.50
2019,04,01,00,12,7.50
2019,04,01,00,13,7.40
2019,04,01,00,14,7.40
2019,04,01,00,15,7.40
2019,04,01,00,16,7.40
2019,04,01,00,17,7.40
2019,04,01,00,18,7.40
2019,04,01,00,19,7.40
2019,04,01,00,20,7.30
2019,04,01,00,21,7.30
2019,04,01,00,22,7.30
2019,04,01,00,23,7.30
2019,04,01,00,24,7.30
2019,04,01,00,25,7.20
2019,04,01,00,26,7.20
2019,04,01,00,27,7.20
2019,04,01,00,28,7.20
2019,04,01,00,29,7.20
2019,04,01,00,30,7.20
2019,04,01,00,31,7.10
2019,04,01,00,32,7.10
2019,04,01,00,33,7.10
2019,04,01,00,34,7.10
2019,04,01,00,35,7.00
2019,04,01,00,36,7.00
2019,04,01,00,37,7.00
2019,04,01,00,38,7.00
2019,04,01,00,39,6.90
2019,04,01,00,40,6.90
2019,04,01,00,41,6.90
2019,04,01,00,42,6.90
2019,04,01,00,43,6.80
2019,04,01,00,44,6.80
2019,04,01,00,45,6.80
2019,04,01,00,46,6.70
2019,04,01,00,47,6.70
2019,04,01,00,48,6.70
2019,04,01,00,49,6.70
2019,04,01,00,50,6.60
2019,04,01,00,51,6.60
2019,04,01,00,52,6.50
2019,04,01,00,53,6.50
2019,04,01,00,54,6.40
2019,04,01,00,55,6.40
2019,04,01,00,56,6.40
2019,04,01,00,57,6.30
2019,04,01,00,58,6.30
2019,04,01,00,59,6.30
2019,04,01,01,00,6.20
2019,04,01,01,01,6.20
2019,04,01,01,02,6.20
2019,04,01,01,03,6.20
2019,04,01,01,04,6.10
2019,04,01,01,05,6.10
2019,04,01,01,06,6.10
2019,04,01,01,07,6.10
2019,04,01,01,08,6.10
2019,04,01,01,09,6.00
2019,04,01,01,10,6.00
2019,04,01,01,11,6.00
2019,04,01,01,12,5.90
2019,04,01,01,13,5.90
2019,04,01,01,14,5.90
2019,04,01,01,15,5.90
2019,04,01,01,16,5.90
2019,04,01,01,17,5.90
2019,04,01,01,18,5.90
2019,04,01,01,19,5.90
2019,04,01,01,20,5.90
2019,04,01,01,21,5.90
2019,04,01,01,22,5.90
2019,04,01,01,23,5.90
2019,04,01,01,24,5.90
2019,04,01,01,25,5.90
2019,04,01,01,26,6.00
2019,04,01,01,27,6.00
2019,04,01,01,28,6.00
2019,04,01,01,29,6.00
2019,04,01,01,30,6.00
2019,04,01,01,31,6.10
2019,04,01,01,32,6.10
2019,04,01,01,33,6.10
2019,04,01,01,34,6.10
2019,04,01,01,35,6.10
2019,04,01,01,36,6.10
2019,04,01,01,37,6.10
2019,04,01,01,38,6.20
2019,04,01,01,39,6.20
2019,04,01,01,40,6.20
2019,04,01,01,41,6.20
2019,04,01,01,42,6.20
2019,04,01,01,43,6.20
2019,04,01,01,44,6.20
2019,04,01,01,45,6.20
2019,04,01,01,46,6.20
2019,04,01,01,47,6.20
2019,04,01,01,48,6.10
2019,04,01,01,49,6.10
2019,04,01,01,50,6.10
2019,04,01,01,51,6.10
2019,04,01,01,52,6.10
2019,04,01,01,53,6.10
2019,04,01,01,54,6.20
2019,04,01,01,55,6.20
2019,04,01,01,56,6.20
2019,04,01,01,57,6.20
2019,04,01,01,58,6.20
2019,04,01,01,59,6.30
2019,04,01,02,00,6.30
2019,04,01,02,01,6.30
2019,04,01,02,02,6.30
2019,04,01,02,03,6.30
2019,04,01,02,04,6.30
2019,04,01,02,05,6.30
2019,04,01,02,06,6.30
2019,04,01,02,07,6.30
2019,04,01,02,08,6.30
2019,04,01,02,09,6.30
2019,04,01,02,10,6.30
2019,04,01,02,11,6.30
2019,04,01,02,12,6.30
2019,04,01,02,13,6.30
2019,04,01,02,14,6.20
2019,04,01,02,15,6.20
2019,04,01,02,16,6.20
2019,04,01,02,17,6.20
2019,04,01,02,18,6.20
2019,04,01,02,19,6.20
2019,04,01,02,20,6.20
2019,04,01,02,21,6.10
2019,04,01,02,22,6.10
2019,04,01,02,23,6.10
2019,04,01,02,24,6.20
2019,04,01,02,25,6.20
2019,04,01,02,26,6.20
2019,04,01,02,27,6.20
2019,04,01,02,28,6.30
2019,04,01,02,29,6.30
2019,04,01,02,30,6.30
2019,04,01,02,31,6.30
2019,04,01,02,32,6.30
2019,04,01,02,33,6.40
2019,04,01,02,34,6.40
2019,04,01,02,35,6.50
2019,04,01,02,36,6.50
2019,04,01,02,37,6.60
2019,04,01,02,38,6.60
2019,04,01,02,39,6.60
2019,04,01,02,40,6.60
2019,04,01,02,41,6.60
2019,04,01,02,42,6.70
2019,04,01,02,43,6.70
2019,04,01,02,44,6.70
2019,04,01,02,45,6.70
2019,04,01,02,46,6.70
2019,04,01,02,47,6.70
2019,04,01,02,48,6.70
2019,04,01,02,49,6.70
2019,04,01,02,50,6.70
2019,04,01,02,51,6.70
2019,04,01,02,52,6.70
2019,04,01,02,53,6.70
2019,04,01,02,54,6.60
2019,04,01,02,55,6.60
2019,04,01,02,56,6.60
2019,04,01,02,57,6.60
2019,04,01,02,58,6.60
2019,04,01,02,59,6.60
2019,04,01,03,00,6.50
2019,04,01,03,01,6.50
2019,04,01,03,02,6.40
2019,04,01,03,03,6.40
2019,04,01,03,04,6.40
2019,04,01,03,05,6.30
2019,04,01,03,06,6.30
2019,04,01,03,07,6.30
2019,04,01,03,08,6.20
2019,04,01,03,09,6.20
2019,04,01,03,10,6.20
2019,04,01,03,11,6.20
2019,04,01,03,12,6.10
2019,04,01,03,13,6.10
2019,04,01,03,14,6.10
2019,04,01,03,15,6.00
2019,04,01,03,16,6.00
2019,04,01,03,17,5.90
2019,04,01,03,18,5.90
2019,04,01,03,19,5.90
2019,04,01,03,20,5.80
2019,04,01,03,21,5.80
2019,04,01,03,22,5.80
2019,04,01,03,23,5.70
2019,04,01,03,24,5.70
2019,04,01,03,25,5.70
2019,04,01,03,26,5.70
2019,04,01,03,27,5.60
2019,04,01,03,28,5.60
2019,04,01,03,29,5.60
2019,04,01,03,30,5.60
2019,04,01,03,31,5.50
2019,04,01,03,32,5.50
2019,04,01,03,33,5.50
2019,04,01,03,34,5.40
2019,04,01,03,35,5.40
2019,04,01,03,36,5.40
2019,04,01,03,37,5.40
2019,04,01,03,38,5.40
2019,04,01,03,39,5.30
2019,04,01,03,40,5.30
2019,04,01,03,41,5.30
2019,04,01,03,42,5.30
2019,04,01,03,43,5.30
2019,04,01,03,44,5.30
2019,04,01,03,45,5.30
2019,04,01,03,46,5.30
2019,04,01,03,47,5.30
2019,04,01,03,48,5.30
2019,04,01,03,49,5.30
2019,04,01,03,50,5.20
2019,04,01,03,51,5.20
2019,04,01,03,52,5.20
2019,04,01,03,53,5.20
2019,04,01,03,54,5.20
2019,04,01,03,55,5.20
2019,04,01,03,56,5.10
2019,04,01,03,57,5.10
2019,04,01,03,58,5.10
2019,04,01,03,59,5.10
2019,04,01,04,00,5.00
2019,04,01,04,01,5.00
2019,04,01,04,02,5.00
2019,04,01,04,03,4.90
2019,04,01,04,04,4.90
2019,04,01,04,05,4.90
2019,04,01,04,06,4.90
2019,04,01,04,07,4.90
2019,04,01,04,08,4.90
2019,04,01,04,09,4.90
2019,04,01,04,10,4.80
2019,04,01,04,11,4.80
2019,04,01,04,12,4.80
2019,04,01,04,13,4.80
2019,04,01,04,14,4.80
2019,04,01,04,15,4.70
2019,04,01,04,16,4.70
2019,04,01,04,17,4.70
2019,04,01,04,18,4.70
2019,04,01,04,19,4.70
2019,04,01,04,20,4.70
2019,04,01,04,21,4.70
2019,04,01,04,22,4.60
2019,04,01,04,23,4.60
2019,04,01,04,24,4.60
2019,04,01,04,25,4.60
2019,04,01,04,26,4.60
2019,04,01,04,27,4.50
2019,04,01,04,28,4.50
2019,04,01,04,29,4.50
2019,04,01,04,30,4.40
2019,04,01,04,31,4.40
2019,04,01,04,32,4.40
2019,04,01,04,33,4.40
2019,04,01,04,34,4.40
2019,04,01,04,35,4.40
2019,04,01,04,36,4.40
2019,04,01,04,37,4.30
2019,04,01,04,38,4.30
2019,04,01,04,39,4.30
2019,04,01,04,40,4.30
2019,04,01,04,41,4.40
2019,04,01,04,42,4.30
2019,04,01,04,43,4.30
2019,04,01,04,44,4.30
2019,04,01,04,45,4.30
2019,04,01,04,46,4.30
2019,04,01,04,47,4.30
2019,04,01,04,48,4.30
2019,04,01,04,49,4.30
2019,04,01,04,50,4.30
2019,04,01,04,51,4.30
2019,04,01,04,52,4.30
2019,04,01,04,53,4.30
2019,04,01,04,54,4.30
2019,04,01,04,55,4.30
2019,04,01,04,56,4.30
2019,04,01,04,57,4.30
2019,04,01,04,58,4.30
2019,04,01,04,59,4.30
2019,04,01,05,00,4.30
2019,04,01,05,01,4.20
2019,04,01,05,02,4.20
2019,04,01,05,03,4.20
2019,04,01,05,04,4.30
2019,04,01,05,05,4.30
2019,04,01,05,06,4.30
2019,04,01,05,07,4.30
2019,04,01,05,08,4.40
2019,04,01,05,09,4.40
2019,04,01,05,10,4.50
2019,04,01,05,11,4.60
2019,04,01,05,12,4.60
2019,04,01,05,13,4.70
2019,04,01,05,14,4.70
2019,04,01,05,15,4.80
2019,04,01,05,16,4.90
2019,04,01,05,17,5.10
2019,04,01,05,18,5.10
2019,04,01,05,19,5.20
2019,04,01,05,20,5.20
2019,04,01,05,21,5.20
2019,04,01,05,22,5.30
2019,04,01,05,23,5.40
2019,04,01,05,24,5.50
2019,04,01,05,25,5.60
2019,04,01,05,26,5.70
2019,04,01,05,27,5.70
2019,04,01,05,28,5.80
2019,04,01,05,29,5.80
2019,04,01,05,30,5.90
2019,04,01,05,31,5.90
2019,04,01,05,32,5.90
2019,04,01,05,33,5.90
2019,04,01,05,34,6.00
2019,04,01,05,35,6.00
2019,04,01,05,36,6.00
2019,04,01,05,37,6.00
2019,04,01,05,38,6.00
2019,04,01,05,39,6.00
2019,04,01,05,40,6.00
2019,04,01,05,41,5.90
2019,04,01,05,42,5.90
2019,04,01,05,43,5.90
2019,04,01,05,44,5.90
2019,04,01,05,45,5.90
2019,04,01,05,46,5.90
2019,04,01,05,47,5.90
2019,04,01,05,48,5.90
2019,04,01,05,49,5.90
2019,04,01,05,50,5.90
2019,04,01,05,51,5.80
2019,04,01,05,52,5.80
2019,04,01,05,53,5.80
2019,04,01,05,54,5.80
2019,04,01,05,55,5.80
2019,04,01,05,56,5.80
2019,04,01,05,57,5.80
2019,04,01,05,58,5.80
2019,04,01,05,59,5.70
2019,04,01,06,00,5.70
2019,04,01,06,01,5.80
2019,04,01,06,02,5.80
2019,04,01,06,03,5.80
2019,04,01,06,04,5.80
2019,04,01,06,05,5.80
2019,04,01,06,06,5.80
2019,04,01,06,07,5.80
2019,04,01,06,08,5.90
2019,04,01,06,09,5.90
2019,04,01,06,10,5.90
2019,04,01,06,11,5.80
2019,04,01,06,12,5.80
2019,04,01,06,13,5.80
2019,04,01,06,14,5.80
2019,04,01,06,15,5.80
2019,04,01,06,16,5.80
2019,04,01,06,17,5.70
2019,04,01,06,18,5.70
2019,04,01,06,19,5.80
2019,04,01,06,20,5.80
2019,04,01,06,21,5.80
2019,04,01,06,22,5.80
2019,04,01,06,23,5.80
2019,04,01,06,24,5.70
2019,04,01,06,25,5.70
2019,04,01,06,26,5.80
2019,04,01,06,27,5.80
2019,04,01,06,28,5.80
2019,04,01,06,29,5.80
2019,04,01,06,30,5.80
2019,04,01,06,31,5.80
2019,04,01,06,32,5.80
2019,04,01,06,33,5.80
2019,04,01,06,34,5.80
2019,04,01,06,35,5.90
2019,04,01,06,36,5.90
2019,04,01,06,37,5.90
2019,04,01,06,38,6.00
2019,04,01,06,39,6.00
2019,04,01,06,40,6.00
2019,04,01,06,41,6.00
2019,04,01,06,42,6.10
2019,04,01,06,43,6.10
2019,04,01,06,44,6.10
2019,04,01,06,45,6.10
2019,04,01,06,46,6.10
2019,04,01,06,47,6.10
2019,04,01,06,48,6.10
2019,04,01,06,49,6.20
2019,04,01,06,50,6.20
2019,04,01,06,51,6.20
2019,04,01,06,52,6.20
2019,04,01,06,53,6.20
2019,04,01,06,54,6.20
2019,04,01,06,55,6.20
2019,04,01,06,56,6.10
2019,04,01,06,57,6.10
2019,04,01,06,58,6.10
2019,04,01,06,59,6.10
2019,04,01,07,00,6.00
2019,04,01,07,01,6.00
2019,04,01,07,02,6.00
2019,04,01,07,03,6.00
2019,04,01,07,04,5.90
2019,04,01,07,05,5.90
2019,04,01,07,06,5.90
2019,04,01,07,07,5.90
2019,04,01,07,08,5.90
2019,04,01,07,09,5.80
2019,04,01,07,10,5.80
2019,04,01,07,11,5.80
2019,04,01,07,12,5.80
2019,04,01,07,13,5.70
2019,04,01,07,14,5.70
2019,04,01,07,15,5.70
2019,04,01,07,16,5.70
2019,04,01,07,17,5.70
2019,04,01,07,18,5.60
2019,04,01,07,19,5.60
2019,04,01,07,20,5.60
2019,04,01,07,21,5.60
2019,04,01,07,22,5.60
2019,04,01,07,23,5.60
2019,04,01,07,24,5.60
2019,04,01,07,25,5.60
2019,04,01,07,26,5.60
2019,04,01,07,27,5.60
2019,04,01,07,28,5.60
2019,04,01,07,29,5.50
2019,04,01,07,30,5.50
2019,04,01,07,31,5.50
2019,04,01,07,32,5.50
2019,04,01,07,33,5.50
2019,04,01,07,34,5.50
2019,04,01,07,35,5.50
2019,04,01,07,36,5.40
2019,04,01,07,37,5.40
2019,04,01,07,38,5.40
2019,04,01,07,39,5.40
2019,04,01,07,40,5.50
2019,04,01,07,41,5.50
2019,04,01,07,42,5.50
2019,04,01,07,43,5.50
2019,04,01,07,44,5.60
2019,04,01,07,45,5.60
2019,04,01,07,46,5.70
2019,04,01,07,47,5.80
2019,04,01,07,48,5.80
2019,04,01,07,49,5.90
2019,04,01,07,50,5.90
2019,04,01,07,51,6.00
2019,04,01,07,52,6.10
2019,04,01,07,53,6.10
2019,04,01,07,54,6.20
2019,04,01,07,55,6.20
2019,04,01,07,56,6.30
2019,04,01,07,57,6.40
2019,04,01,07,58,6.40
2019,04,01,07,59,6.50
2019,04,01,08,00,6.60
2019,04,01,08,01,6.70
2019,04,01,08,02,6.80
2019,04,01,08,03,6.80
2019,04,01,08,04,6.90
2019,04,01,08,05,7.00
2019,04,01,08,06,7.00
2019,04,01,08,07,7.10
2019,04,01,08,08,7.20
2019,04,01,08,09,7.20
2019,04,01,08,10,7.30
2019,04,01,08,11,7.30
2019,04,01,08,12,7.30
2019,04,01,08,13,7.40
2019,04,01,08,14,7.40
2019,04,01,08,15,7.40
2019,04,01,08,16,7.50
2019,04,01,08,17,7.50
2019,04,01,08,18,7.60
2019,04,01,08,19,7.60
2019,04,01,08,20,7.60
2019,04,01,08,21,7.70
2019,04,01,08,22,7.70
2019,04,01,08,23,7.70
2019,04,01,08,24,7.80
2019,04,01,08,25,7.80
2019,04,01,08,26,7.80
2019,04,01,08,27,7.80
2019,04,01,08,28,7.80
2019,04,01,08,29,7.90
2019,04,01,08,30,7.90
2019,04,01,08,31,8.00
2019,04,01,08,32,8.00
2019,04,01,08,33,8.10
2019,04,01,08,34,8.10
2019,04,01,08,35,8.10
2019,04,01,08,36,8.20
2019,04,01,08,37,8.20
2019,04,01,08,38,8.30
2019,04,01,08,39,8.30
2019,04,01,08,40,8.30
2019,04,01,08,41,8.30
2019,04,01,08,42,8.30
2019,04,01,08,43,8.30
2019,04,01,08,44,8.40
2019,04,01,08,45,8.40
2019,04,01,08,46,8.40
2019,04,01,08,47,8.40
2019,04,01,08,48,8.50
2019,04,01,08,49,8.50
2019,04,01,08,50,8.60
2019,04,01,08,51,8.60
2019,04,01,08,52,8.70
2019,04,01,08,53,8.80
2019,04,01,08,54,8.90
2019,04,01,08,55,9.00
2019,04,01,08,56,9.10
2019,04,01,08,57,9.20
2019,04,01,08,58,9.20
2019,04,01,08,59,9.30
2019,04,01,09,00,9.40
2019,04,01,09,01,9.50
2019,04,01,09,02,9.60
2019,04,01,09,03,9.70
2019,04,01,09,04,9.70
2019,04,01,09,05,9.80
2019,04,01,09,06,9.90
2019,04,01,09,07,9.90
2019,04,01,09,08,10.00
2019,04,01,09,09,10.10
2019,04,01,09,10,10.20
2019,04,01,09,11,10.30
2019,04,01,09,12,10.40
2019,04,01,09,13,10.50
2019,04,01,09,14,10.50
2019,04,01,09,15,10.60
2019,04,01,09,16,10.60
2019,04,01,09,17,10.70
2019,04,01,09,18,10.70
2019,04,01,09,19,10.70
2019,04,01,09,20,10.80
2019,04,01,09,21,10.80
2019,04,01,09,22,10.80
2019,04,01,09,23,10.80
2019,04,01,09,24,10.90
2019,04,01,09,25,10.90
2019,04,01,09,26,11.00
2019,04,01,09,27,11.00
2019,04,01,09,28,11.10
2019,04,01,09,29,11.10
2019,04,01,09,30,11.20
2019,04,01,09,31,11.20
2019,04,01,09,32,11.20
2019,04,01,09,33,11.30
2019,04,01,09,34,11.40
2019,04,01,09,35,11.50
2019,04,01,09,36,11.60
2019,04,01,09,37,11.70
2019,04,01,09,38,11.80
2019,04,01,09,39,11.90
2019,04,01,09,40,12.00
2019,04,01,09,41,12.00
2019,04,01,09,42,12.10
2019,04,01,09,43,12.20
2019,04,01,09,44,12.20
2019,04,01,09,45,12.30
2019,04,01,09,46,12.30
2019,04,01,09,47,12.30
2019,04,01,09,48,12.40
2019,04,01,09,49,12.40
2019,04,01,09,50,12.40
2019,04,01,09,51,12.50
2019,04,01,09,52,12.50
2019,04,01,09,53,12.60
2019,04,01,09,54,12.70
2019,04,01,09,55,12.70
2019,04,01,09,56,12.80
2019,04,01,09,57,12.80
2019,04,01,09,58,12.80
2019,04,01,09,59,12.90
2019,04,01,10,00,12.90
2019,04,01,10,01,13.00
2019,04,01,10,02,13.00
2019,04,01,10,03,13.10
2019,04,01,10,04,13.20
2019,04,01,10,05,13.20
2019,04,01,10,06,13.20
2019,04,01,10,07,13.30
2019,04,01,10,08,13.30
2019,04,01,10,09,13.40
2019,04,01,10,10,13.40
2019,04,01,10,11,13.40
2019,04,01,10,12,13.40
2019,04,01,10,13,13.50
2019,04,01,10,14,13.60
2019,04,01,10,15,13.60
2019,04,01,10,16,13.60
2019,04,01,10,17,13.60
2019,04,01,10,18,13.70
2019,04,01,10,19,13.70
2019,04,01,10,20,13.70
2019,04,01,10,21,13.70
2019,04,01,10,22,13.70
2019,04,01,10,23,13.70
2019,04,01,10,24,13.70
2019,04,01,10,25,13.80
2019,04,01,10,26,13.80
2019,04,01,10,27,13.80
2019,04,01,10,28,13.80
2019,04,01,10,29,13.80
2019,04,01,10,30,13.80
2019,04,01,10,31,13.80
2019,04,01,10,32,13.80
2019,04,01,10,33,13.80
2019,04,01,10,34,13.90
2019,04,01,10,35,14.00
2019,04,01,10,36,14.00
2019,04,01,10,37,14.00
2019,04,01,10,38,14.10
2019,04,01,10,39,14.10
2019,04,01,10,40,14.00
2019,04,01,10,41,14.00
2019,04,01,10,42,14.00
2019,04,01,10,43,14.00
2019,04,01,10,44,14.00
2019,04,01,10,45,14.00
2019,04,01,10,46,14.00
2019,04,01,10,47,14.00
2019,04,01,10,48,14.10
2019,04,01,10,49,14.10
2019,04,01,10,50,14.10
2019,04,01,10,51,14.20
2019,04,01,10,52,14.20
2019,04,01,10,53,14.20
2019,04,01,10,54,14.30
2019,04,01,10,55,14.30
2019,04,01,10,56,14.30
2019,04,01,10,57,14.40
2019,04,01,10,58,14.50
2019,04,01,10,59,14.50
2019,04,01,11,00,14.50
2019,04,01,11,01,14.50
2019,04,01,11,02,14.40
2019,04,01,11,03,14.40
2019,04,01,11,04,14.50
2019,04,01,11,05,14.60
2019,04,01,11,06,14.60
2019,04,01,11,07,14.60
2019,04,01,11,08,14.70
2019,04,01,11,09,14.60
2019,04,01,11,10,14.60
2019,04,01,11,11,14.60
2019,04,01,11,12,14.60
2019,04,01,11,13,14.60
2019,04,01,11,14,14.60
2019,04,01,11,15,14.60
2019,04,01,11,16,14.60
2019,04,01,11,17,14.60
2019,04,01,11,18,14.60
2019,04,01,11,19,14.60
2019,04,01,11,20,14.60
2019,04,01,11,21,14.60
2019,04,01,11,22,14.60
2019,04,01,11,23,14.70
2019,04,01,11,24,14.70
2019,04,01,11,25,14.80
2019,04,01,11,26,14.80
2019,04,01,11,27,14.80
2019,04,01,11,28,14.90
2019,04,01,11,29,15.00
2019,04,01,11,30,15.00
2019,04,01,11,31,15.00
2019,04,01,11,32,15.10
2019,04,01,11,33,15.10
2019,04,01,11,34,15.20
2019,04,01,11,35,15.30
2019,04,01,11,36,15.20
2019,04,01,11,37,15.10
2019,04,01,11,38,15.00
2019,04,01,11,39,15.00
2019,04,01,11,40,14.90
2019,04,01,11,41,15.00
2019,04,01,11,42,15.10
2019,04,01,11,43,15.10
2019,04,01,11,44,15.30
2019,04,01,11,45,15.40
2019,04,01,11,46,15.40
2019,04,01,11,47,15.50
2019,04,01,11,48,15.50
2019,04,01,11,49,15.60
2019,04,01,11,50,15.60
2019,04,01,11,51,15.50
2019,04,01,11,52,15.40
2019,04,01,11,53,15.40
2019,04,01,11,54,15.40
2019,04,01,11,55,15.50
2019,04,01,11,56,15.50
2019,04,01,11,57,15.50
2019,04,01,11,58,15.50
2019,04,01,11,59,15.60
2019,04,01,12,00,15.70
2019,04,01,12,01,15.80
2019,04,01,12,02,15.80
2019,04,01,12,03,15.90
2019,04,01,12,04,16.00
2019,04,01,12,05,16.10
2019,04,01,12,06,16.10
2019,04,01,12,07,16.20
2019,04,01,12,08,16.20
2019,04,01,12,09,16.10
2019,04,01,12,10,16.10
2019,04,01,12,11,16.10
2019,04,01,12,12,16.00
2019,04,01,12,13,16.00
2019,04,01,12,14,16.00
2019,04,01,12,15,16.00
2019,04,01,12,16,16.10
2019,04,01,12,17,16.10
2019,04,01,12,18,16.10
2019,04,01,12,19,16.10
2019,04,01,12,20,16.20
2019,04,01,12,21,16.20
2019,04,01,12,22,16.20
2019,04,01,12,23,16.20
2019,04,01,12,24,16.20
2019,04,01,12,25,16.20
2019,04,01,12,26,16.20
2019,04,01,12,27,16.30
2019,04,01,12,28,16.30
2019,04,01,12,29,16.30
2019,04,01,12,30,16.40
2019,04,01,12,31,16.40
2019,04,01,12,32,16.40
2019,04,01,12,33,16.40
2019,04,01,12,34,16.50
2019,04,01,12,35,16.60
2019,04,01,12,36,16.60
2019,04,01,12,37,16.60
2019,04,01,12,38,16.60
2019,04,01,12,39,16.70
2019,04,01,12,40,16.70
2019,04,01,12,41,16.70
2019,04,01,12,42,16.60
2019,04,01,12,43,16.60
2019,04,01,12,44,16.70
2019,04,01,12,45,16.70
2019,04,01,12,46,16.60
2019,04,01,12,47,16.60
2019,04,01,12,48,16.50
2019,04,01,12,49,16.40
2019,04,01,12,50,16.40
2019,04,01,12,51,16.40
2019,04,01,12,52,16.50
2019,04,01,12,53,16.50
2019,04,01,12,54,16.60
2019,04,01,12,55,16.60
2019,04,01,12,56,16.60
2019,04,01,12,57,16.50
2019,04,01,12,58,16.50
2019,04,01,12,59,16.60
2019,04,01,13,00,16.60
2019,04,01,13,01,16.60
2019,04,01,13,02,16.50
2019,04,01,13,03,16.50
2019,04,01,13,04,16.40
2019,04,01,13,05,16.40
2019,04,01,13,06,16.50
2019,04,01,13,07,16.50
2019,04,01,13,08,16.50
2019,04,01,13,09,16.60
2019,04,01,13,10,16.60
2019,04,01,13,11,16.50
2019,04,01,13,12,16.40
2019,04,01,13,13,16.40
2019,04,01,13,14,16.50
2019,04,01,13,15,16.60
2019,04,01,13,16,16.60
2019,04,01,13,17,16.70
2019,04,01,13,18,16.70
2019,04,01,13,19,16.80
2019,04,01,13,20,16.90
2019,04,01,13,21,16.90
2019,04,01,13,22,16.90
2019,04,01,13,23,16.90
2019,04,01,13,24,17.00
2019,04,01,13,25,17.00
2019,04,01,13,26,17.00
2019,04,01,13,27,17.10
2019,04,01,13,28,17.10
2019,04,01,13,29,17.10
2019,04,01,13,30,17.10
2019,04,01,13,31,17.10
2019,04,01,13,32,17.10
2019,04,01,13,33,17.10
2019,04,01,13,34,17.20
2019,04,01,13,35,17.20
2019,04,01,13,36,17.30
2019,04,01,13,37,17.30
2019,04,01,13,38,17.30
2019,04,01,13,39,17.30
2019,04,01,13,40,17.30
2019,04,01,13,41,17.30
2019,04,01,13,42,17.30
2019,04,01,13,43,17.30
2019,04,01,13,44,17.40
2019,04,01,13,45,17.40
2019,04,01,13,46,17.40
2019,04,01,13,47,17.40
2019,04,01,13,48,17.50
2019,04,01,13,49,17.50
2019,04,01,13,50,17.60
2019,04,01,13,51,17.60
2019,04,01,13,52,17.70
2019,04,01,13,53,17.60
2019,04,01,13,54,17.60
2019,04,01,13,55,17.60
2019,04,01,13,56,17.70
2019,04,01,13,57,17.70
2019,04,01,13,58,17.70
2019,04,01,13,59,17.80
2019,04,01,14,00,17.90
2019,04,01,14,01,17.90
2019,04,01,14,02,17.80
2019,04,01,14,03,17.80
2019,04,01,14,04,17.70
2019,04,01,14,05,17.60
2019,04,01,14,06,17.50
2019,04,01,14,07,17.40
2019,04,01,14,08,17.40
2019,04,01,14,09,17.40
2019,04,01,14,10,17.40
2019,04,01,14,11,17.40
2019,04,01,14,12,17.50
2019,04,01,14,13,17.50
2019,04,01,14,14,17.60
2019,04,01,14,15,17.70
2019,04,01,14,16,17.80
2019,04,01,14,17,17.80
2019,04,01,14,18,17.80
2019,04,01,14,19,17.80
2019,04,01,14,20,17.80
2019,04,01,14,21,17.60
2019,04,01,14,22,17.60
2019,04,01,14,23,17.60
2019,04,01,14,24,17.60
2019,04,01,14,25,17.60
2019,04,01,14,26,17.50
2019,04,01,14,27,17.40
2019,04,01,14,28,17.40
2019,04,01,14,29,17.40
2019,04,01,14,30,17.50
2019,04,01,14,31,17.50
2019,04,01,14,32,17.50
2019,04,01,14,33,17.60
2019,04,01,14,34,17.70
2019,04,01,14,35,17.80
2019,04,01,14,36,17.90
2019,04,01,14,37,18.00
2019,04,01,14,38,18.10
2019,04,01,14,39,18.30
2019,04,01,14,40,18.30
2019,04,01,14,41,18.30
2019,04,01,14,42,18.30
2019,04,01,14,43,18.30
2019,04,01,14,44,18.30
2019,04,01,14,45,18.30
2019,04,01,14,46,18.30
2019,04,01,14,47,18.30
2019,04,01,14,48,18.40
2019,04,01,14,49,18.40
2019,04,01,14,50,18.50
2019,04,01,14,51,18.60
2019,04,01,14,52,18.60
2019,04,01,14,53,18.70
2019,04,01,14,54,18.60
2019,04,01,14,55,18.50
2019,04,01,14,56,18.40
2019,04,01,14,57,18.40
2019,04,01,14,58,18.30
2019,04,01,14,59,18.30
2019,04,01,15,00,18.30
2019,04,01,15,01,18.40
2019,04,01,15,02,18.30
2019,04,01,15,03,18.30
2019,04,01,15,04,18.30
2019,04,01,15,05,18.30
2019,04,01,15,06,18.30
2019,04,01,15,07,18.30
2019,04,01,15,08,18.30
2019,04,01,15,09,18.30
2019,04,01,15,10,18.40
2019,04,01,15,11,18.40
2019,04,01,15,12,18.50
2019,04,01,15,13,18.50
2019,04,01,15,14,18.60
2019,04,01,15,15,18.60
2019,04,01,15,16,18.70
2019,04,01,15,17,18.80
2019,04,01,15,18,18.80
2019,04,01,15,19,18.90
2019,04,01,15,20,18.90
2019,04,01,15,21,18.90
2019,04,01,15,22,18.80
2019,04,01,15,23,18.80
2019,04,01,15,24,18.80
2019,04,01,15,25,18.80
2019,04,01,15,26,18.80
2019,04,01,15,27,18.70
2019,04,01,15,28,18.70
2019,04,01,15,29,18.70
2019,04,01,15,30,18.70
2019,04,01,15,31,18.70
2019,04,01,15,32,18.70
2019,04,01,15,33,18.70
2019,04,01,15,34,18.70
2019,04,01,15,35,18.70
2019,04,01,15,36,18.60
2019,04,01,15,37,18.60
2019,04,01,15,38,18.70
2019,04,01,15,39,18.70
2019,04,01,15,40,18.80
2019,04,01,15,41,18.90
2019,04,01,15,42,19.00
2019,04,01,15,43,19.00
2019,04,01,15,44,19.00
2019,04,01,15,45,19.00
2019,04,01,15,46,19.00
2019,04,01,15,47,19.00
2019,04,01,15,48,19.00
2019,04,01,15,49,19.10
2019,04,01,15,50,19.00
2019,04,01,15,51,19.00
2019,04,01,15,52,19.00
2019,04,01,15,53,19.00
2019,04,01,15,54,19.00
2019,04,01,15,55,19.00
2019,04,01,15,56,19.00
2019,04,01,15,57,19.10
2019,04,01,15,58,19.10
2019,04,01,15,59,19.20
2019,04,01,16,00,19.30
2019,04,01,16,01,19.20
2019,04,01,16,02,19.30
2019,04,01,16,03,19.30
2019,04,01,16,04,19.30
2019,04,01,16,05,19.30
2019,04,01,16,06,19.30
2019,04,01,16,07,19.30
2019,04,01,16,08,19.30
2019,04,01,16,09,19.40
2019,04,01,16,10,19.40
2019,04,01,16,11,19.50
2019,04,01,16,12,19.50
2019,04,01,16,13,19.60
2019,04,01,16,14,19.60
2019,04,01,16,15,19.60
2019,04,01,16,16,19.60
2019,04,01,16,17,19.60
2019,04,01,16,18,19.60
2019,04,01,16,19,19.60
2019,04,01,16,20,19.60
2019,04,01,16,21,19.60
2019,04,01,16,22,19.50
2019,04,01,16,23,19.50
2019,04,01,16,24,19.50
2019,04,01,16,25,19.50
2019,04,01,16,26,19.50
2019,04,01,16,27,19.60
2019,04,01,16,28,19.50
2019,04,01,16,29,19.60
2019,04,01,16,30,19.50
2019,04,01,16,31,19.40
2019,04,01,16,32,19.20
2019,04,01,16,33,19.10
2019,04,01,16,34,19.10
2019,04,01,16,35,19.10
2019,04,01,16,36,19.00
2019,04,01,16,37,19.10
2019,04,01,16,38,19.10
2019,04,01,16,39,19.10
2019,04,01,16,40,19.10
2019,04,01,16,41,19.20
2019,04,01,16,42,19.20
2019,04,01,16,43,19.30
2019,04,01,16,44,19.30
2019,04,01,16,45,19.40
2019,04,01,16,46,19.50
2019,04,01,16,47,19.50
2019,04,01,16,48,19.60
2019,04,01,16,49,19.60
2019,04,01,16,50,19.50
2019,04,01,16,51,19.50
2019,04,01,16,52,19.50
2019,04,01,16,53,19.50
2019,04,01,16,54,19.40
2019,04,01,16,55,19.50
2019,04,01,16,56,19.50
2019,04,01,16,57,19.60
2019,04,01,16,58,19.50
2019,04,01,16,59,19.50
2019,04,01,17,00,19.50
2019,04,01,17,01,19.60
2019,04,01,17,02,19.60
2019,04,01,17,03,19.60
2019,04,01,17,04,19.70
2019,04,01,17,05,19.70
2019,04,01,17,06,19.70
2019,04,01,17,07,19.70
2019,04,01,17,08,19.70
2019,04,01,17,09,19.80
2019,04,01,17,10,19.80
2019,04,01,17,11,19.80
2019,04,01,17,12,19.70
2019,04,01,17,13,19.70
2019,04,01,17,14,19.70
2019,04,01,17,15,19.70
2019,04,01,17,16,19.70
2019,04,01,17,17,19.70
2019,04,01,17,18,19.70
2019,04,01,17,19,19.70
2019,04,01,17,20,19.70
2019,04,01,17,21,19.70
2019,04,01,17,22,19.70
2019,04,01,17,23,19.70
2019,04,01,17,24,19.70
2019,04,01,17,25,19.70
2019,04,01,17,26,19.70
2019,04,01,17,27,19.80
2019,04,01,17,28,19.80
2019,04,01,17,29,19.80
2019,04,01,17,30,19.80
2019,04,01,17,31,19.80
2019,04,01,17,32,19.70
2019,04,01,17,33,19.70
2019,04,01,17,34,19.70
2019,04,01,17,35,19.70
2019,04,01,17,36,19.70
2019,04,01,17,37,19.60
2019,04,01,17,38,19.60
2019,04,01,17,39,19.50
2019,04,01,17,40,19.40
2019,04,01,17,41,19.40
2019,04,01,17,42,19.40
2019,04,01,17,43,19.50